Regional Weather Roundup
Issued by NWS

Home | Current Version | Previous Version | Text Only | Print | Product List | Glossary Off
Versions: 1 2 3 4 5 6 7 8 9 10 11 12 13 14 15 16 17 18 19 20 21 22 23 24 25 26 27 28 29 30 31 32 33 34 35 36 37 38 39 40 41 42 43 44 45 46 47 48 49 50

000
ASUS43 KBIS 270710
RWRND

NORTH DAKOTA REGIONAL WEATHER ROUNDUP
NATIONAL WEATHER SERVICE BISMARCK ND
200 AM CDT MON MAR 27 2017

NOTE: "FAIR" INDICATES FEW OR NO CLOUDS BELOW 12,000 FEET WITH NO
SIGNIFICANT WEATHER AND/OR OBSTRUCTIONS TO VISIBILITY.


NDZ001>003-009>011-017-270800-
NORTHWEST NORTH DAKOTA

CITY           SKY/WX    TMP DP  RH WIND       PRES   REMARKS
WILLISTON      MOCLDY    35  29  78 CALM      29.88F
MINOT          FAIR      36  34  92 N7        29.88R
MINOT AFB      PTCLDY    32  31  95 CALM      29.87S
$$

NDZ018>021-031>035-040>046-270800-
SOUTHWEST NORTH DAKOTA

CITY           SKY/WX    TMP DP  RH WIND       PRES   REMARKS
BISMARCK       FAIR      34  31  88 NE8       29.93S
DICKINSON      FAIR      33  29  85 S7        29.86S
GARRISON         N/A     43  33  68 CALM      29.88S
HETTINGER ARPT CLEAR     37  32  82 CALM      29.91S
$$

NDZ004>008-012>016-024-026-027-054-270800-
NORTHEAST NORTH DAKOTA

CITY           SKY/WX    TMP DP  RH WIND       PRES   REMARKS
GRAND FORKS    CLOUDY    40  39  97 CALM      29.96S
GRND FRKS AFB  CLOUDY    34  34 100 CALM      29.96S FOG
DEVILS LAKE    FOG       34  32  93 SE3       29.94S VSB 1/2
$$

NDZ022-023-025-028>030-036>039-047>053-270800-
SOUTHEAST NORTH DAKOTA

CITY           SKY/WX    TMP DP  RH WIND       PRES   REMARKS
FARGO          PTCLDY    35  33  92 CALM      29.95S
JAMESTOWN      FAIR      34  34 100 S3        29.93S
$$





USA.gov is the U.S. government's official web portal to all federal, state and local government web resources and services.